Location: Albany
(35.0170°S, 117.8920°E)
Time: 03:47:31
(UTC+08:00)

Vanguard 1 - Pass Details

Date: 30 January 2021
Orbit: 649 x 3833 km, 34.2° (Epoch: 26 February)

Event Time Altitude Azimuth Distance (km) Brightness Sun altitude
Rises 23:17:59 0° 300° (WNW) 5,723 13.9 -35.4°
Reaches altitude 10° 23:22:33 10° 303° (WNW) 4,195 13.1 -35.7°
Enters shadow 23:23:15 12° 304° (NW) 3,953 13.0 -35.7°
Maximum altitude 23:32:12 55° 17° (NNE) 1,371 - -36.2°
Drops below altitude 10° 23:37:48 10° 93° (E) 2,482 - -36.5°
Sets 23:39:52 0° 98° (E) 3,246 - -36.6°
